| time (UTC) | temp C | wind direction | speed KPH | gust KPH | rain 1hr cm | rain 24hr cm | rain mn cm | humidity % | barometer mb |
| 20260502214049 | 13 | 222 | 0.0 | 0.0 | 0.00 | 0.00 | 0.00 | 77 | 1015.6 |
| 20260502212922 | 13 | 198 | 0.0 | 0.0 | 0.00 | 0.00 | 0.00 | 78 | 1015.5 |
| 20260502211759 | 13 | 228 | 0.0 | 0.0 | 0.00 | 0.00 | 0.00 | 78 | 1015.5 |
| 20260502210627 | 13 | 252 | 0.0 | 0.0 | 0.00 | 0.00 | 0.00 | 77 | 1015.4 |
| 20260502205459 | 14 | 240 | 0.0 | 0.0 | 0.00 | 0.00 | 0.00 | 75 | 1015.4 |
| 20260502204332 | 14 | 258 | 0.0 | 0.0 | 0.00 | 0.00 | 0.00 | 73 | 1015.3 |
| 20260502203217 | 15 | 246 | 0.0 | 0.0 | 0.00 | 0.00 | 0.00 | 73 | 1015.3 |
| 20260502202037 | 15 | 210 | 0.0 | 0.0 | 0.00 | 0.00 | 0.00 | 72 | 1015.3 |
| 20260502200910 | 15 | 186 | 0.0 | 0.0 | 0.00 | 0.00 | 0.00 | 71 | 1015.2 |
| 20260502195742 | 16 | 210 | 0.0 | 0.0 | 0.00 | 0.00 | 0.00 | 69 | 1015.2 |
| 20260502194613 | 16 | 48 | 0.0 | 1.6 | 0.00 | 0.00 | 0.00 | 65 | 1015.2 |
| 20260502193447 | 16 | 222 | 0.0 | 1.6 | 0.00 | 0.00 | 0.00 | 65 | 1015.1 |
| 20260502192319 | 16 | 180 | 3.2 | 3.2 | 0.00 | 0.00 | 0.00 | 63 | 1015.0 |
| 20260502191205 | 16 | 228 | 0.0 | 1.6 | 0.00 | 0.00 | 0.00 | 62 | 1014.8 |
| 20260502190024 | 16 | 198 | 0.0 | 0.0 | 0.00 | 0.00 | 0.00 | 63 | 1014.5 |
| 20260502184855 | 17 | 204 | 0.0 | 0.0 | 0.00 | 0.00 | 0.00 | 63 | 1014.4 |
| 20260502183728 | 17 | 210 | 0.0 | 0.0 | 0.00 | 0.00 | 0.00 | 60 | 1014.3 |
| 20260502182601 | 18 | 192 | 0.0 | 0.0 | 0.00 | 0.00 | 0.00 | 60 | 1014.3 |
| 20260502181434 | 18 | 186 | 0.0 | 0.0 | 0.00 | 0.00 | 0.00 | 60 | 1014.1 |
| 20260502180308 | 19 | 216 | 0.0 | 0.0 | 0.00 | 0.00 | 0.00 | 59 | 1014.0 |
| 20260502170446 | 25 | 54 | 0.0 | 3.2 | 0.00 | 0.00 | 0.00 | 33 | 1013.8 |
| 20260502164047 | 25 | 252 | 0.0 | 3.2 | 0.00 | 0.00 | 0.00 | 53 | 1014.0 |
| 20260502162920 | 25 | 198 | 0.0 | 3.2 | 0.00 | 0.00 | 0.00 | 39 | 1013.8 |
| 20260502161753 | 26 | 224 | 0.0 | 3.2 | 0.00 | 0.00 | 0.00 | 33 | 1014.1 |
| 20260502160625 | 25 | 86 | 0.0 | 3.2 | 0.00 | 0.00 | 0.00 | 33 | 1014.3 |
| 20260502151741 | 26 | 277 | 0.0 | 1.6 | 0.00 | 0.00 | 0.00 | 36 | 1015.1 |
| 20260502150600 | 26 | 48 | 6.4 | 6.4 | 0.00 | 0.00 | 0.00 | 33 | 1015.1 |
| 20260502123710 | 25 | 55 | 0.0 | 3.2 | 0.00 | 0.00 | 0.00 | 36 | 1017.7 |
| 20260502122528 | 25 | 60 | 1.6 | 3.2 | 0.00 | 0.00 | 0.00 | 36 | 1018.1 |
| 20260502121400 | 25 | 198 | 3.2 | 4.8 | 0.00 | 0.00 | 0.00 | 36 | 1017.8 |
| 20260502120234 | 26 | 9 | 0.0 | 3.2 | 0.00 | 0.00 | 0.00 | 37 | 1018.3 |
| 20260502115106 | 25 | 54 | 4.8 | 4.8 | 0.00 | 0.00 | 0.00 | 34 | 1018.5 |
| 20260502112709 | 25 | 210 | 3.2 | 4.8 | 0.00 | 0.00 | 0.00 | 37 | 1018.8 |
| 20260502111540 | 25 | 166 | 4.8 | 4.8 | 0.00 | 0.00 | 0.00 | 41 | 1019.2 |
| 20260502110412 | 23 | 260 | 3.2 | 4.8 | 0.00 | 0.00 | 0.00 | 40 | 1019.7 |
| 20260502105245 | 23 | 193 | 0.0 | 4.8 | 0.00 | 0.00 | 0.00 | 40 | 1019.8 |
| 20260502104028 | 23 | 184 | 4.8 | 6.4 | 0.00 | 0.00 | 0.00 | 43 | 1019.5 |
| 20260502102848 | 22 | 167 | 0.0 | 4.8 | 0.00 | 0.00 | 0.00 | 41 | 1020.1 |
| 20260502101720 | 22 | 174 | 3.2 | 4.8 | 0.00 | 0.00 | 0.00 | 43 | 1020.2 |
| 20260502100554 | 22 | 155 | 3.2 | 4.8 | 0.00 | 0.00 | 0.00 | 47 | 1020.4 |
| 20260502090734 | 18 | 12 | 0.0 | 4.8 | 0.00 | 0.00 | 0.00 | 52 | 1021.5 |
| 20260502071157 | 11 | 90 | 0.0 | 0.0 | 0.00 | 0.00 | 0.00 | 69 | 1022.1 |
| 20260502070030 | 10 | 90 | 0.0 | 0.0 | 0.00 | 0.00 | 0.00 | 73 | 1022.3 |
| 20260502064902 | 10 | 84 | 0.0 | 0.0 | 0.00 | 0.00 | 0.00 | 72 | 1022.3 |
| 20260502063736 | 9 | 30 | 0.0 | 0.0 | 0.00 | 0.00 | 0.00 | 72 | 1022.3 |
| 20260502062521 | 8 | 36 | 0.0 | 0.0 | 0.00 | 0.00 | 0.00 | 76 | 1022.3 |
| 20260502061339 | 8 | 36 | 0.0 | 0.0 | 0.00 | 0.00 | 0.00 | 80 | 1022.3 |
| 20260502060213 | 7 | 228 | 0.0 | 0.0 | 0.00 | 0.00 | 0.00 | 78 | 1022.4 |
| 20260502055044 | 7 | 342 | 0.0 | 0.0 | 0.00 | 0.00 | 0.00 | 81 | 1022.4 |
| 20260502053917 | 7 | 204 | 0.0 | 0.0 | 0.00 | 0.00 | 0.00 | 80 | 1022.4 |
| 20260502052749 | 7 | 234 | 0.0 | 0.0 | 0.00 | 0.00 | 0.00 | 81 | 1022.4 |
| 20260502051621 | 6 | 162 | 0.0 | 0.0 | 0.00 | 0.00 | 0.00 | 83 | 1022.3 |
| 20260502050507 | 6 | 198 | 0.0 | 1.6 | 0.00 | 0.00 | 0.00 | 82 | 1022.2 |
| 20260502045327 | 6 | 240 | 0.0 | 0.0 | 0.00 | 0.00 | 0.00 | 84 | 1022.2 |
| 20260502044159 | 6 | 204 | 0.0 | 0.0 | 0.00 | 0.00 | 0.00 | 83 | 1022.3 |
| 20260502043030 | 6 | 330 | 0.0 | 0.0 | 0.00 | 0.00 | 0.00 | 84 | 1022.2 |
| 20260502041904 | 6 | 174 | 0.0 | 0.0 | 0.00 | 0.00 | 0.00 | 83 | 1022.3 |
| 20260502040647 | 6 | 174 | 0.0 | 0.0 | 0.00 | 0.00 | 0.00 | 83 | 1022.2 |
| 20260502035506 | 6 | 180 | 0.0 | 0.0 | 0.00 | 0.00 | 0.00 | 82 | 1022.3 |
| 20260502034338 | 6 | 138 | 0.0 | 0.0 | 0.00 | 0.00 | 0.00 | 81 | 1022.2 |
| 20260502033210 | 6 | 282 | 0.0 | 0.0 | 0.00 | 0.00 | 0.00 | 81 | 1022.1 |
| 20260502032044 | 6 | 222 | 0.0 | 0.0 | 0.00 | 0.00 | 0.00 | 80 | 1022.0 |
| 20260502030827 | 6 | 216 | 0.0 | 0.0 | 0.00 | 0.00 | 0.00 | 80 | 1022.0 |
| 20260502025645 | 6 | 222 | 0.0 | 0.0 | 0.00 | 0.00 | 0.00 | 82 | 1022.0 |
| 20260502024519 | 6 | 133 | 0.0 | 0.0 | 0.00 | 0.00 | 0.00 | 83 | 1022.0 |
| 20260502023352 | 6 | 246 | 0.0 | 0.0 | 0.00 | 0.00 | 0.00 | 82 | 1022.1 |
| 20260502022225 | 6 | 162 | 0.0 | 0.0 | 0.00 | 0.00 | 0.00 | 81 | 1022.1 |
| 20260502021059 | 6 | 198 | 0.0 | 0.0 | 0.00 | 0.00 | 0.00 | 82 | 1022.1 |
| 20260502015930 | 6 | 42 | 1.6 | 1.6 | 0.00 | 0.00 | 0.00 | 83 | 1022.1 |
| 20260502014816 | 6 | 198 | 0.0 | 0.0 | 0.00 | 0.00 | 0.00 | 84 | 1022.1 |
| 20260502013635 | 6 | 216 | 0.0 | 0.0 | 0.00 | 0.00 | 0.00 | 83 | 1022.0 |
| 20260502012506 | 6 | 228 | 0.0 | 0.0 | 0.00 | 0.00 | 0.00 | 82 | 1022.1 |
| 20260502011339 | 6 | 192 | 0.0 | 0.0 | 0.00 | 0.00 | 0.00 | 82 | 1022.0 |
| 20260502010211 | 6 | 198 | 0.0 | 0.0 | 0.00 | 0.00 | 0.00 | 80 | 1022.0 |
| 20260502004956 | 6 | 300 | 0.0 | 0.0 | 0.00 | 0.00 | 0.00 | 80 | 1022.0 |
| 20260502003816 | 7 | 18 | 0.0 | 0.0 | 0.00 | 0.00 | 0.00 | 79 | 1022.0 |
| 20260502002648 | 7 | 192 | 0.0 | 1.6 | 0.00 | 0.00 | 0.00 | 78 | 1022.1 |
| 20260502001519 | 7 | 216 | 0.0 | 0.0 | 0.00 | 0.00 | 0.00 | 76 | 1022.1 |
| 20260502000351 | 7 | 216 | 1.6 | 1.6 | 0.00 | 0.00 | 0.00 | 75 | 1022.2 |
| 20260501235136 | 7 | 90 | 0.0 | 3.2 | 0.00 | 0.00 | 0.00 | 75 | 1022.2 |
| 20260501233955 | 8 | 162 | 0.0 | 1.6 | 0.00 | 0.00 | 0.00 | 73 | 1022.1 |
| 20260501232826 | 8 | 354 | 0.0 | 0.0 | 0.00 | 0.00 | 0.00 | 73 | 1022.2 |
| 20260501231700 | 8 | 192 | 3.2 | 3.2 | 0.00 | 0.00 | 0.00 | 73 | 1022.1 |
| 20260501230532 | 7 | 0 | 0.0 | 0.0 | 0.00 | 0.00 | 0.00 | 75 | 1022.1 |
| 20260501225405 | 7 | 198 | 0.0 | 1.6 | 0.00 | 0.00 | 0.00 | 76 | 1022.1 |
| 20260501224237 | 8 | 150 | 0.0 | 0.0 | 0.00 | 0.00 | 0.00 | 75 | 1022.0 |
| 20260501223122 | 8 | 168 | 0.0 | 0.0 | 0.00 | 0.00 | 0.00 | 73 | 1022.2 |
| 20260501221941 | 9 | 12 | 0.0 | 0.0 | 0.00 | 0.00 | 0.00 | 71 | 1022.2 |
| 20260501220814 | 8 | 210 | 0.0 | 3.2 | 0.00 | 0.00 | 0.00 | 71 | 1022.1 |
| 20260501215645 | 9 | 186 | 0.0 | 1.6 | 0.00 | 0.00 | 0.00 | 69 | 1022.0 |